Regional Weather Roundup
Issued by NWS Sterling, VA

Home | Current Version | Previous Version | Graphics & Text | Print | Product List | Glossary On
Versions: 1 2 3 4 5 6 7 8 9 10 11 12 13 14 15 16 17 18 19 20 21 22 23 24 25 26 27 28 29 30 31 32 33 34 35 36 37 38 39 40 41 42 43 44 45 46 47 48 49 50
000
ASUS41 KLWX 160310
RWRLWX

REGIONAL WEATHER ROUNDUP
NATIONAL WEATHER SERVICE BALTIMORE MD/WASHINGTON DC
1100 PM EDT MON SEP 15 2014

Note: "FAIR" indicates few or no clouds below 12,000 feet
with no significant weather and/or obstructions to visibility.
 TC=TEMPERATURE CELSIUS

 * =Non NWS site. Station does not report precipitation (e.g. rain,
    snow, etc.), thunder, or fog.

DCZ001-MDZ009-015-VAZ040>042-051-053>054-160400-
WASHINGTON METRO

CITY           SKY/WX    TMP DP  RH WIND       PRES   REMARKS
WASHINGTON NAT CLOUDY    69  58  67 S12       30.08F
DULLES         CLOUDY    63  58  83 S6        30.07F
ANDREWS AFB    CLOUDY    62  57  86 S6        30.08F
QUANTICO       CLOUDY    69  62  78 SW14      30.08F
COLLEGE PARK*  CLOUDY    64  59  82 CALM      30.08S
LEESBURG*      CLOUDY    64  59  82 S6        30.08F
MANASSAS*      CLOUDY    64  63  94 S3        30.07F
GAITHERSBURG*  CLOUDY    63  55  77 SE6       30.11F

$$

MDZ006>007-011-014-160400-
BALTIMORE METRO

CITY           SKY/WX    TMP DP  RH WIND       PRES   REMARKS
BWI AIRPORT    MOCLDY    63  56  78 SW3       30.08F
MD SCIENCE CTR   N/A     66  56  70 MISG      30.08F
MARTIN STATE   MOCLDY    63  59  88 CALM      30.09F
ANNAPOLIS      MOCLDY    65  58  78 S6        30.08F
FORT MEADE*    MOCLDY    57  54  88 CALM      30.10F

$$

MDZ012-015-019>023-160400-
MARYLAND EASTERN SHORE

CITY           SKY/WX    TMP DP  RH WIND       PRES   REMARKS
OCEAN CITY     MOCLDY    66  55  67 VRB5      30.11F
SALISBURY        N/A    N/A N/A N/A MISG        N/A
BAY BRIDGE AP*   N/A     68  55  64 S7        30.08F
CAMBRIDGE*     MOCLDY    61  57  88 CALM      30.09F
EASTON*        MOCLDY    63  60  91 CALM      30.13

$$

MDZ017>025-160400-
SOUTHERN MARYLAND

CITY           SKY/WX    TMP DP  RH WIND       PRES   REMARKS
PATUXENT RIVER CLOUDY    66  59  78 S7        30.09F
ST INIGOES     MOCLDY    68  58  70 S9        30.09F
LEONARDTOWN*   MOCLDY    63  57  82 S3        30.11F

$$

MDZ003>005-160400-
NORTH CENTRAL MARYLAND

CITY           SKY/WX    TMP DP  RH WIND       PRES   REMARKS
FREDERICK*     CLOUDY    61  57  88 CALM      30.09F
HAGERSTOWN APT CLOUDY    63  52  67 CALM      30.05F
WESTMINSTER*   CLOUDY    63  55  77 S7        30.07F

$$

MDZ501>502-160400-
WESTERN MARYLAND

CITY           SKY/WX    TMP DP  RH WIND       PRES   REMARKS
OAKLAND*       MOCLDY    52 N/A N/A W3        30.11R
CUMBERLAND*    NOT AVBL

$$

VAZ025>031-160400-
SHENANDOAH VALLEY

CITY           SKY/WX    TMP DP  RH WIND       PRES   REMARKS
WINCHESTER*    CLOUDY    64  55  72 S6        30.04F
STAUNTON*      CLOUDY    65  59  79 S5        30.08F

$$

WVZ021-048>050-054>055-160400-
EASTERN WEST VIRGINIA PANHANDLE

CITY           SKY/WX    TMP DP  RH WIND       PRES   REMARKS
MARTINSBURG    CLOUDY    60  54  80 CALM      30.04F
PETERSBURG*    CLOUDY    60  58  96 CALM      30.04F

$$

VAZ036>039-050-160400-
CENTRAL FOOTHILLS

CITY           SKY/WX    TMP DP  RH WIND       PRES   REMARKS
CHARLOTTESVILL CLOUDY    67  61  81 S6        30.08F
ORANGE*        CLOUDY    64  61  88 S5        30.10S

$$

VAZ055>057-160400-
NORTH AND CENTRAL PIEDMONT

CITY           SKY/WX    TMP DP  RH WIND       PRES   REMARKS
FREDERICKSBRG* CLOUDY    67  61  81 S7        30.08F
STAFFORD*      CLOUDY    62  62 100 CALM      30.12F

$$

NCZ024-NYZ072-PAZ021-071-VAZ022-071-160400-
OTHER REGIONAL OBSERVATIONS

CITY           SKY/WX    TMP DP  RH WIND       PRES   REMARKS
NEW YORK CITY  PTCLDY    63  51  65 VRB3      30.13R
PHILADELPHIA   MOCLDY    61  52  72 CALM      30.09S
PITTSBURGH     CLOUDY    60  52  74 CALM      30.06R
ROANOKE        CLOUDY    68  63  84 CALM      30.11F
RICHMOND       MOCLDY    66  61  84 SE3       30.10F
RALEIGH        CLOUDY    69  65  86 S3        30.13F

$$

ANZ530>537-160400-
MARINE OBSERVATIONS

STATION/POSITION TIME  TEMP    WIND        PRES
                       AIR SEA DIR/SP/G
                 (UTC) (F)     (DEG/KT/KT) (MB)
THOMAS PT LIGHT  0300   70 74  200/ 17/ 18 1019.4F
BALT KEY BRIDGE  0300                      1018.3
COVE POINT       0300                      1018.9
LEWISETTA        0300                      1018.8
SOLOMONS ISLAND  0200      76                N/A
PINEY POINT      0200          200/ 14/ 16   N/A

$$




USA.gov is the U.S. government's official web portal to all federal, state and local government web resources and services.